Year,Month,Day,Hour,Minute,Value (Times are PST for temperature in C)
2015,01,17,00,00,6.20
2015,01,17,00,01,6.20
2015,01,17,00,02,6.20
2015,01,17,00,03,6.20
2015,01,17,00,04,6.20
2015,01,17,00,05,6.20
2015,01,17,00,06,6.20
2015,01,17,00,07,6.20
2015,01,17,00,08,6.20
2015,01,17,00,09,6.20
2015,01,17,00,10,6.20
2015,01,17,00,11,6.30
2015,01,17,00,12,6.30
2015,01,17,00,13,6.30
2015,01,17,00,14,6.30
2015,01,17,00,15,6.30
2015,01,17,00,16,6.30
2015,01,17,00,17,6.40
2015,01,17,00,18,6.40
2015,01,17,00,19,6.40
2015,01,17,00,20,6.40
2015,01,17,00,21,6.40
2015,01,17,00,22,6.40
2015,01,17,00,23,6.40
2015,01,17,00,24,6.50
2015,01,17,00,25,6.50
2015,01,17,00,26,6.60
2015,01,17,00,27,6.60
2015,01,17,00,28,6.70
2015,01,17,00,29,6.80
2015,01,17,00,30,6.90
2015,01,17,00,31,7.00
2015,01,17,00,32,7.10
2015,01,17,00,33,7.20
2015,01,17,00,34,7.30
2015,01,17,00,35,7.40
2015,01,17,00,36,7.40
2015,01,17,00,37,7.50
2015,01,17,00,38,7.60
2015,01,17,00,39,7.60
2015,01,17,00,40,7.60
2015,01,17,00,41,7.70
2015,01,17,00,42,7.70
2015,01,17,00,43,7.70
2015,01,17,00,44,7.70
2015,01,17,00,45,7.70
2015,01,17,00,46,7.70
2015,01,17,00,47,7.70
2015,01,17,00,48,7.70
2015,01,17,00,49,7.80
2015,01,17,00,50,7.80
2015,01,17,00,51,7.80
2015,01,17,00,52,7.80
2015,01,17,00,53,7.80
2015,01,17,00,54,7.80
2015,01,17,00,55,7.80
2015,01,17,00,56,7.80
2015,01,17,00,57,7.80
2015,01,17,00,58,7.70
2015,01,17,00,59,7.70
2015,01,17,01,00,7.70
2015,01,17,01,01,7.70
2015,01,17,01,02,7.70
2015,01,17,01,03,7.70
2015,01,17,01,04,7.70
2015,01,17,01,05,7.70
2015,01,17,01,06,7.70
2015,01,17,01,07,7.70
2015,01,17,01,08,7.70
2015,01,17,01,09,7.60
2015,01,17,01,10,7.60
2015,01,17,01,11,7.60
2015,01,17,01,12,7.50
2015,01,17,01,13,7.50
2015,01,17,01,14,7.40
2015,01,17,01,15,7.40
2015,01,17,01,16,7.40
2015,01,17,01,17,7.40
2015,01,17,01,18,7.40
2015,01,17,01,19,7.40
2015,01,17,01,20,7.40
2015,01,17,01,21,7.40
2015,01,17,01,22,7.40
2015,01,17,01,23,7.40
2015,01,17,01,24,7.40
2015,01,17,01,25,7.40
2015,01,17,01,26,7.40
2015,01,17,01,27,7.40
2015,01,17,01,28,7.40
2015,01,17,01,29,7.40
2015,01,17,01,30,7.40
2015,01,17,01,31,7.40
2015,01,17,01,32,7.40
2015,01,17,01,33,7.40
2015,01,17,01,34,7.40
2015,01,17,01,35,7.40
2015,01,17,01,36,7.40
2015,01,17,01,37,7.40
2015,01,17,01,38,7.40
2015,01,17,01,39,7.40
2015,01,17,01,40,7.40
2015,01,17,01,41,7.40
2015,01,17,01,42,7.40
2015,01,17,09,03,6.40
2015,01,17,09,04,6.40
2015,01,17,09,05,6.40
2015,01,17,09,06,6.40
2015,01,17,09,07,6.40
2015,01,17,09,08,6.50
2015,01,17,09,09,6.50
2015,01,17,09,10,6.50
2015,01,17,09,11,6.60
2015,01,17,09,12,6.60
2015,01,17,09,13,6.60
2015,01,17,09,14,6.70
2015,01,17,09,15,6.70
2015,01,17,09,16,6.70
2015,01,17,09,17,6.80
2015,01,17,09,18,6.80
2015,01,17,09,19,6.80
2015,01,17,09,20,6.80
2015,01,17,09,21,6.80
2015,01,17,09,22,6.80
2015,01,17,09,23,6.80
2015,01,17,09,24,6.80
2015,01,17,09,25,6.90
2015,01,17,09,26,6.90
2015,01,17,09,27,6.90
2015,01,17,09,28,6.90
2015,01,17,09,29,6.90
2015,01,17,09,30,6.90
2015,01,17,09,31,6.90
2015,01,17,09,32,6.90
2015,01,17,09,33,6.90
2015,01,17,09,34,6.90
2015,01,17,09,35,6.90
2015,01,17,09,36,6.90
2015,01,17,09,37,6.90
2015,01,17,09,38,6.90
2015,01,17,09,39,6.90
2015,01,17,09,40,6.90
2015,01,17,09,41,6.90
2015,01,17,09,42,6.90
2015,01,17,09,43,6.90
2015,01,17,09,44,6.90
2015,01,17,09,45,7.00
2015,01,17,09,46,7.00
2015,01,17,09,47,7.00
2015,01,17,09,48,7.00
2015,01,17,09,49,7.00
2015,01,17,09,50,7.00
2015,01,17,09,51,7.00
2015,01,17,09,52,7.00
2015,01,17,09,53,7.00
2015,01,17,09,54,7.00
2015,01,17,09,55,7.00
2015,01,17,09,56,7.00
2015,01,17,09,57,7.00
2015,01,17,09,58,7.00
2015,01,17,09,59,7.00
2015,01,17,10,00,7.10
2015,01,17,10,01,7.10
2015,01,17,10,02,7.10
2015,01,17,10,03,7.10
2015,01,17,10,04,7.10
2015,01,17,10,05,7.10
2015,01,17,10,06,7.10
2015,01,17,10,07,7.10
2015,01,17,10,08,7.10
2015,01,17,10,09,7.20
2015,01,17,10,10,7.20
2015,01,17,10,11,7.20
2015,01,17,10,12,7.20
2015,01,17,10,13,7.20
2015,01,17,10,14,7.20
2015,01,17,10,15,7.20
2015,01,17,10,16,7.20
2015,01,17,10,17,7.20
2015,01,17,10,18,7.20
2015,01,17,10,19,7.20
2015,01,17,10,20,7.20
2015,01,17,10,21,7.20
2015,01,17,10,22,7.20
2015,01,17,10,23,7.20
2015,01,17,10,24,7.20
2015,01,17,10,25,7.30
2015,01,17,10,26,7.30
2015,01,17,10,27,7.30
2015,01,17,10,28,7.30
2015,01,17,10,29,7.30
2015,01,17,10,30,7.30
2015,01,17,10,31,7.30
2015,01,17,10,32,7.30
2015,01,17,10,33,7.30
2015,01,17,10,34,7.30
2015,01,17,10,35,7.30
2015,01,17,10,36,7.30
2015,01,17,10,37,7.30
2015,01,17,10,38,7.30
2015,01,17,10,39,7.30
2015,01,17,10,40,7.30
2015,01,17,10,41,7.30
2015,01,17,10,42,7.30
2015,01,17,10,43,7.30
2015,01,17,10,44,7.30
2015,01,17,10,45,7.30
2015,01,17,10,46,7.30
2015,01,17,10,47,7.30
2015,01,17,10,48,7.30
2015,01,17,10,49,7.30
2015,01,17,10,50,7.30
2015,01,17,10,51,7.30
2015,01,17,10,52,7.30
2015,01,17,10,53,7.30
2015,01,17,10,54,7.20
2015,01,17,10,55,7.20
2015,01,17,10,56,7.20
2015,01,17,10,57,7.20
2015,01,17,10,58,7.20
2015,01,17,10,59,7.10
2015,01,17,11,00,7.10
2015,01,17,11,01,7.10
2015,01,17,11,02,7.10
2015,01,17,11,03,7.10
2015,01,17,11,04,7.00
2015,01,17,11,05,7.00
2015,01,17,11,06,7.00
2015,01,17,11,07,6.90
2015,01,17,11,08,6.90
2015,01,17,11,09,6.90
2015,01,17,11,10,6.80
2015,01,17,11,11,6.80
2015,01,17,11,12,6.80
2015,01,17,11,13,6.80
2015,01,17,11,14,6.80
2015,01,17,11,15,6.80
2015,01,17,11,16,6.70
2015,01,17,11,17,6.70
2015,01,17,11,18,6.70
2015,01,17,11,19,6.70
2015,01,17,11,20,6.70
2015,01,17,11,21,6.70
2015,01,17,11,22,6.70
2015,01,17,11,23,6.70
2015,01,17,11,24,6.70
2015,01,17,11,25,6.70
2015,01,17,11,26,6.70
2015,01,17,11,27,6.70
2015,01,17,11,28,6.70
2015,01,17,11,29,6.70
2015,01,17,11,30,6.70
2015,01,17,11,31,6.70
2015,01,17,11,32,6.70
2015,01,17,11,33,6.70
2015,01,17,11,34,6.60
2015,01,17,11,35,6.60
2015,01,17,11,36,6.60
2015,01,17,11,37,6.60
2015,01,17,11,38,6.60
2015,01,17,11,39,6.60
2015,01,17,11,40,6.60
2015,01,17,11,41,6.60
2015,01,17,11,42,6.50
2015,01,17,11,43,6.50
2015,01,17,11,44,6.50
2015,01,17,11,45,6.50
2015,01,17,11,46,6.40
2015,01,17,11,47,6.40
2015,01,17,11,48,6.40
2015,01,17,11,49,6.40
2015,01,17,11,50,6.40
2015,01,17,11,51,6.40
2015,01,17,11,52,6.40
2015,01,17,11,53,6.40
2015,01,17,11,54,6.40
2015,01,17,11,55,6.40
2015,01,17,11,56,6.40
2015,01,17,11,57,6.40
2015,01,17,11,58,6.40
2015,01,17,11,59,6.40
2015,01,17,12,00,6.40
2015,01,17,12,01,6.40
2015,01,17,12,02,6.40
2015,01,17,12,03,6.40
2015,01,17,12,04,6.40
2015,01,17,12,05,6.40
2015,01,17,12,06,6.40
2015,01,17,12,07,6.40
2015,01,17,12,08,6.40
2015,01,17,12,09,6.40
2015,01,17,12,10,6.40
2015,01,17,12,11,6.40
2015,01,17,12,12,6.40
2015,01,17,12,13,6.50
2015,01,17,12,14,6.40
2015,01,17,12,15,6.50
2015,01,17,12,16,6.50
2015,01,17,12,17,6.50
2015,01,17,12,18,6.50
2015,01,17,12,19,6.40
2015,01,17,12,20,6.40
2015,01,17,12,21,6.40
2015,01,17,12,22,6.40
2015,01,17,12,23,6.40
2015,01,17,12,24,6.40
2015,01,17,12,25,6.40
2015,01,17,12,26,6.40
2015,01,17,12,27,6.40
2015,01,17,12,28,6.40
2015,01,17,12,29,6.40
2015,01,17,12,30,6.30
2015,01,17,12,31,6.30
2015,01,17,12,32,6.30
2015,01,17,12,33,6.30
2015,01,17,12,34,6.30
2015,01,17,12,35,6.30
2015,01,17,12,36,6.30
2015,01,17,12,37,6.30
2015,01,17,12,38,6.30
2015,01,17,12,39,6.30
2015,01,17,12,40,6.30
2015,01,17,12,41,6.30
2015,01,17,12,42,6.20
2015,01,17,12,43,6.20
2015,01,17,12,44,6.20
2015,01,17,12,45,6.20
2015,01,17,12,46,6.20
2015,01,17,12,47,6.20
2015,01,17,12,48,6.20
2015,01,17,12,49,6.20
2015,01,17,12,50,6.20
2015,01,17,12,51,6.20
2015,01,17,12,52,6.20
2015,01,17,12,53,6.20
2015,01,17,12,54,6.20
2015,01,17,12,55,6.20
2015,01,17,12,56,6.20
2015,01,17,12,57,6.20
2015,01,17,12,58,6.20
2015,01,17,12,59,6.20
2015,01,17,13,00,6.20
2015,01,17,13,01,6.20
2015,01,17,13,02,6.20
2015,01,17,13,03,6.20
2015,01,17,13,04,6.20
2015,01,17,13,05,6.20
2015,01,17,13,06,6.20
2015,01,17,13,07,6.20
2015,01,17,13,08,6.10
2015,01,17,13,09,6.10
2015,01,17,13,10,6.10
2015,01,17,13,11,6.10
2015,01,17,13,12,6.10
2015,01,17,13,13,6.10
2015,01,17,13,14,6.10
2015,01,17,13,15,6.10
2015,01,17,13,16,6.10
2015,01,17,13,17,6.10
2015,01,17,13,18,6.10
2015,01,17,13,19,6.10
2015,01,17,13,20,6.10
2015,01,17,13,21,6.10
2015,01,17,13,22,6.10
2015,01,17,13,23,6.10
2015,01,17,13,24,6.10
2015,01,17,13,25,6.10
2015,01,17,13,26,6.10
2015,01,17,13,27,6.10
2015,01,17,13,28,6.10
2015,01,17,13,29,6.10
2015,01,17,13,30,6.10
2015,01,17,13,31,6.10
2015,01,17,13,32,6.10
2015,01,17,13,33,6.10
2015,01,17,13,34,6.10
2015,01,17,13,35,6.10
2015,01,17,13,36,6.10
2015,01,17,13,37,6.10
2015,01,17,13,38,6.10
2015,01,17,13,39,6.10
2015,01,17,13,40,6.10
2015,01,17,13,41,6.10
2015,01,17,13,42,6.10
2015,01,17,13,43,6.20
2015,01,17,13,44,6.20
2015,01,17,13,45,6.20
2015,01,17,13,46,6.20
2015,01,17,13,47,6.20
2015,01,17,13,48,6.20
2015,01,17,13,49,6.20
2015,01,17,13,50,6.20
2015,01,17,13,51,6.20
2015,01,17,13,52,6.20
2015,01,17,13,53,6.20
2015,01,17,13,54,6.20
2015,01,17,13,55,6.20
2015,01,17,13,56,6.20
2015,01,17,13,57,6.20
2015,01,17,13,58,6.20
2015,01,17,13,59,6.20
2015,01,17,14,00,6.20
2015,01,17,14,01,6.20
2015,01,17,14,02,6.20
2015,01,17,14,03,6.20
2015,01,17,14,04,6.20
2015,01,17,14,05,6.20
2015,01,17,14,06,6.20
2015,01,17,14,07,6.20
2015,01,17,14,08,6.20
2015,01,17,14,09,6.20
2015,01,17,14,10,6.20
2015,01,17,14,11,6.20
2015,01,17,14,12,6.20
2015,01,17,14,13,6.20
2015,01,17,14,14,6.20
2015,01,17,14,15,6.20
2015,01,17,14,16,6.20
2015,01,17,14,17,6.20
2015,01,17,14,18,6.30
2015,01,17,14,19,6.30
2015,01,17,14,20,6.30
2015,01,17,14,21,6.30
2015,01,17,14,22,6.30
2015,01,17,14,23,6.30
2015,01,17,14,24,6.30
2015,01,17,14,25,6.30
2015,01,17,14,26,6.30
2015,01,17,14,27,6.30
2015,01,17,14,28,6.30
2015,01,17,14,29,6.30
2015,01,17,14,30,6.30
2015,01,17,14,31,6.30
2015,01,17,14,32,6.30
2015,01,17,14,33,6.30
2015,01,17,14,34,6.30
2015,01,17,14,35,6.30
2015,01,17,14,36,6.30
2015,01,17,14,37,6.30
2015,01,17,14,38,6.30
2015,01,17,14,39,6.30
2015,01,17,14,40,6.30
2015,01,17,14,41,6.30
2015,01,17,14,42,6.30
2015,01,17,14,43,6.30
2015,01,17,14,44,6.30
2015,01,17,14,45,6.30
2015,01,17,14,46,6.30
2015,01,17,14,47,6.30
2015,01,17,14,48,6.20
2015,01,17,14,49,6.20
2015,01,17,14,50,6.20
2015,01,17,14,51,6.20
2015,01,17,14,52,6.20
2015,01,17,14,53,6.20
2015,01,17,14,54,6.20
2015,01,17,14,55,6.20
2015,01,17,14,56,6.20
2015,01,17,14,57,6.20
2015,01,17,14,58,6.20
2015,01,17,14,59,6.20
2015,01,17,15,00,6.20
2015,01,17,15,01,6.20
2015,01,17,15,02,6.20
2015,01,17,15,03,6.10
2015,01,17,15,04,6.10
2015,01,17,15,05,6.10
2015,01,17,15,06,6.10
2015,01,17,15,07,6.10
2015,01,17,15,08,6.10
2015,01,17,15,09,6.20
2015,01,17,15,10,6.20
2015,01,17,15,11,6.10
2015,01,17,15,12,6.20
2015,01,17,15,13,6.20
2015,01,17,15,14,6.20
2015,01,17,15,15,6.20
2015,01,17,15,16,6.20
2015,01,17,15,17,6.20
2015,01,17,15,18,6.20
2015,01,17,15,19,6.20
2015,01,17,15,20,6.20
2015,01,17,15,21,6.20
2015,01,17,15,22,6.20
2015,01,17,15,23,6.20
2015,01,17,15,24,6.20
2015,01,17,15,25,6.20
2015,01,17,15,26,6.20
2015,01,17,15,27,6.20
2015,01,17,15,28,6.20
2015,01,17,15,29,6.20
2015,01,17,15,30,6.20
2015,01,17,15,31,6.20
2015,01,17,15,32,6.20
2015,01,17,15,33,6.20
2015,01,17,15,34,6.20
2015,01,17,15,35,6.30
2015,01,17,15,36,6.30
2015,01,17,15,37,6.30
2015,01,17,15,38,6.30
2015,01,17,15,39,6.30
2015,01,17,15,40,6.30
2015,01,17,15,41,6.30
2015,01,17,15,42,6.30
2015,01,17,15,43,6.30
2015,01,17,15,44,6.30
2015,01,17,15,45,6.30
2015,01,17,15,46,6.30
2015,01,17,15,47,6.30
2015,01,17,15,48,6.30
2015,01,17,15,49,6.30
2015,01,17,15,50,6.30
2015,01,17,15,51,6.30
2015,01,17,15,52,6.30
2015,01,17,15,53,6.30
2015,01,17,15,54,6.30
2015,01,17,15,55,6.30
2015,01,17,15,56,6.30
2015,01,17,15,57,6.30
2015,01,17,15,58,6.30
2015,01,17,15,59,6.30
2015,01,17,16,00,6.30
2015,01,17,16,01,6.30
2015,01,17,16,02,6.30
2015,01,17,16,03,6.30
2015,01,17,16,04,6.30
2015,01,17,16,05,6.30
2015,01,17,16,06,6.30
2015,01,17,16,07,6.30
2015,01,17,16,08,6.30
2015,01,17,16,09,6.30
2015,01,17,16,10,6.20
2015,01,17,16,11,6.20
2015,01,17,16,12,6.20
2015,01,17,16,13,6.20
2015,01,17,16,14,6.20
2015,01,17,16,15,6.20
2015,01,17,16,16,6.30
2015,01,17,16,17,6.30
2015,01,17,16,18,6.30
2015,01,17,16,19,6.30
2015,01,17,16,20,6.30
2015,01,17,16,21,6.30
2015,01,17,16,22,6.30
2015,01,17,16,23,6.30
2015,01,17,16,24,6.30
2015,01,17,16,25,6.30
2015,01,17,16,26,6.30
2015,01,17,16,27,6.30
2015,01,17,16,28,6.30
2015,01,17,16,29,6.30
2015,01,17,16,30,6.30
2015,01,17,16,31,6.30
2015,01,17,16,32,6.30
2015,01,17,16,33,6.30
2015,01,17,16,34,6.30
2015,01,17,16,35,6.30
2015,01,17,16,36,6.30
2015,01,17,16,37,6.30
2015,01,17,16,38,6.30
2015,01,17,16,39,6.30
2015,01,17,16,40,6.20
2015,01,17,16,41,6.20
2015,01,17,16,42,6.20
2015,01,17,16,43,6.20
2015,01,17,16,44,6.20
2015,01,17,16,45,6.20
2015,01,17,16,46,6.20
2015,01,17,16,47,6.20
2015,01,17,16,48,6.20
2015,01,17,16,49,6.20
2015,01,17,16,50,6.20
2015,01,17,16,51,6.20
2015,01,17,16,52,6.20
2015,01,17,16,53,6.20
2015,01,17,16,54,6.20
2015,01,17,16,55,6.20
2015,01,17,16,56,6.20
2015,01,17,16,57,6.20
2015,01,17,16,58,6.20
2015,01,17,16,59,6.20
2015,01,17,17,00,6.20
2015,01,17,17,01,6.20
2015,01,17,17,02,6.20
2015,01,17,17,03,6.20
2015,01,17,17,04,6.20
2015,01,17,17,05,6.20
2015,01,17,17,06,6.20
2015,01,17,17,07,6.20
2015,01,17,17,08,6.20
2015,01,17,17,09,6.20
2015,01,17,17,10,6.20
2015,01,17,17,11,6.20
2015,01,17,17,12,6.20
2015,01,17,17,13,6.20
2015,01,17,17,14,6.20
2015,01,17,17,15,6.20
2015,01,17,17,16,6.20
2015,01,17,17,17,6.20
2015,01,17,17,18,6.20
2015,01,17,17,19,6.10
2015,01,17,17,20,6.10
2015,01,17,17,21,6.10
2015,01,17,17,22,6.10
2015,01,17,17,23,6.10
2015,01,17,17,24,6.10
2015,01,17,17,25,6.10
2015,01,17,17,26,6.10
2015,01,17,17,27,6.10
2015,01,17,17,28,6.10
2015,01,17,17,29,6.10
2015,01,17,17,30,6.10
2015,01,17,17,31,6.10
2015,01,17,17,32,6.10
2015,01,17,17,33,6.10
2015,01,17,17,34,6.10
2015,01,17,17,35,6.10
2015,01,17,17,36,6.20
2015,01,17,17,37,6.20
2015,01,17,17,38,6.20
2015,01,17,17,39,6.20
2015,01,17,17,40,6.20
2015,01,17,17,41,6.20
2015,01,17,17,42,6.20
2015,01,17,17,43,6.20
2015,01,17,17,44,6.20
2015,01,17,17,45,6.20
2015,01,17,17,46,6.20
2015,01,17,17,47,6.20
2015,01,17,17,48,6.20
2015,01,17,17,49,6.20
2015,01,17,17,50,6.20
2015,01,17,17,51,6.20
2015,01,17,17,52,6.20
2015,01,17,17,53,6.20
2015,01,17,17,54,6.20
2015,01,17,17,55,6.20
2015,01,17,17,56,6.20
2015,01,17,17,57,6.20
2015,01,17,17,58,6.20
2015,01,17,17,59,6.20
2015,01,17,18,00,6.20
2015,01,17,18,01,6.20
2015,01,17,18,02,6.20
2015,01,17,18,03,6.20
2015,01,17,18,04,6.20
2015,01,17,18,05,6.20
2015,01,17,18,06,6.10
2015,01,17,18,07,6.10
2015,01,17,18,08,6.10
2015,01,17,18,09,6.10
2015,01,17,18,10,6.10
2015,01,17,18,11,6.10
2015,01,17,18,12,6.10
2015,01,17,18,13,6.10
2015,01,17,18,14,6.10
2015,01,17,18,15,6.10
2015,01,17,18,16,6.10
2015,01,17,18,17,6.10
2015,01,17,18,18,6.10
2015,01,17,18,19,6.10
2015,01,17,18,20,6.10
2015,01,17,18,21,6.10
2015,01,17,18,22,6.10
2015,01,17,18,23,6.10
2015,01,17,18,24,6.10
2015,01,17,18,25,6.10
2015,01,17,18,26,6.10
2015,01,17,18,27,6.10
2015,01,17,18,28,6.10
2015,01,17,18,29,6.10
2015,01,17,18,30,6.10
2015,01,17,18,31,6.10
2015,01,17,18,32,6.10
2015,01,17,18,33,6.10
2015,01,17,18,34,6.10
2015,01,17,18,35,6.10
2015,01,17,18,36,6.10
2015,01,17,18,37,6.10
2015,01,17,18,38,6.10
2015,01,17,18,39,6.10
2015,01,17,18,40,6.10
2015,01,17,18,41,6.10
2015,01,17,18,42,6.10
2015,01,17,18,43,6.10
2015,01,17,18,44,6.10
2015,01,17,18,45,6.10
